Simultaneous Nadir Overpasses (SNOs) Predictions

Prediction of SNOs between AQUA and NOAA-19 Satellite Orbit:

Table of predicted SNOs for the next 14.0 days since TLE Epoch: 6/25/2016
Index Date (AQUA) Time (AQUA) Lat,Lon (AQUA) SZA (AQUA ) Date (NOAA-19) Time (NOAA-19) Lat,Lon (NOAA-19) SZA (NOAA-19 ) Distance(km) Time Diff (sec)
1 06/26/2016 15:14:52 -80.85, 92.28 120.25 06/26/2016 15:14:36 -80.85, 92.27 120.24 0.29 16
2 06/28/2016 20:48:35 80.86,-171.29 59.89 06/28/2016 20:48:45 80.86,-171.38 59.90 1.66 10
3 07/01/2016 01:32:51 80.88, 117.46 60.07 07/01/2016 01:31:48 80.87, 117.57 60.08 2.11 63
4 07/01/2016 02:22:16 -80.84, -74.49 120.00 07/01/2016 02:22:42 -80.85, -74.57 120.00 1.68 26
5 07/03/2016 07:06:32 -80.86,-145.74 119.79 07/03/2016 07:05:45 -80.86,-145.64 119.78 1.70 47
6 07/03/2016 07:55:58 80.84, 22.15 60.18 07/03/2016 07:56:50 80.85, 22.08 60.17 1.55 52
7 07/05/2016 12:40:14 80.86, -49.17 60.43 07/05/2016 12:39:53 80.86, -49.06 60.43 1.92 21
8 07/05/2016 13:29:40 -80.85, 118.60 119.59 07/05/2016 13:30:48 -80.85, 118.49 119.61 1.83 68




NCC Satellite Simultaneous Nadir Overpasses (SNOs) Prediction Service
